Year,Month,Day,Hour,Minute,Value (Times are PST for temperature in C)
2020,04,15,00,00,10.00
2020,04,15,00,01,10.00
2020,04,15,00,02,10.00
2020,04,15,00,03,10.00
2020,04,15,00,04,10.00
2020,04,15,00,05,10.00
2020,04,15,00,06,10.00
2020,04,15,00,07,9.90
2020,04,15,00,08,9.90
2020,04,15,00,09,9.90
2020,04,15,00,10,9.90
2020,04,15,00,11,9.90
2020,04,15,00,12,9.90
2020,04,15,00,13,9.90
2020,04,15,00,14,9.90
2020,04,15,00,15,9.90
2020,04,15,00,16,9.80
2020,04,15,00,17,9.80
2020,04,15,00,18,9.80
2020,04,15,00,19,9.80
2020,04,15,00,20,9.80
2020,04,15,00,21,9.80
2020,04,15,00,22,9.80
2020,04,15,00,23,9.80
2020,04,15,00,24,9.80
2020,04,15,00,25,9.70
2020,04,15,00,26,9.70
2020,04,15,00,27,9.70
2020,04,15,00,28,9.70
2020,04,15,00,29,9.70
2020,04,15,00,30,9.60
2020,04,15,00,31,9.60
2020,04,15,00,32,9.60
2020,04,15,00,33,9.60
2020,04,15,00,34,9.60
2020,04,15,00,35,9.50
2020,04,15,00,36,9.50
2020,04,15,00,37,9.40
2020,04,15,00,38,9.40
2020,04,15,00,39,9.40
2020,04,15,00,40,9.40
2020,04,15,00,41,9.40
2020,04,15,00,42,9.30
2020,04,15,00,43,9.30
2020,04,15,00,44,9.30
2020,04,15,00,45,9.30
2020,04,15,00,46,9.30
2020,04,15,00,47,9.20
2020,04,15,00,48,9.20
2020,04,15,00,49,9.20
2020,04,15,00,50,9.20
2020,04,15,00,51,9.10
2020,04,15,00,52,9.10
2020,04,15,00,53,9.00
2020,04,15,00,54,9.00
2020,04,15,00,55,8.90
2020,04,15,00,56,8.90
2020,04,15,00,57,8.80
2020,04,15,00,58,8.80
2020,04,15,00,59,8.80
2020,04,15,01,00,8.80
2020,04,15,01,01,8.80
2020,04,15,01,02,8.80
2020,04,15,01,03,8.80
2020,04,15,01,04,8.80
2020,04,15,01,05,8.80
2020,04,15,01,06,8.80
2020,04,15,01,07,8.80
2020,04,15,01,08,8.80
2020,04,15,01,09,8.80
2020,04,15,01,10,8.80
2020,04,15,01,11,8.80
2020,04,15,01,12,8.80
2020,04,15,01,13,8.80
2020,04,15,01,14,8.80
2020,04,15,01,15,8.70
2020,04,15,01,16,8.70
2020,04,15,01,17,8.60
2020,04,15,01,18,8.60
2020,04,15,01,19,8.60
2020,04,15,01,20,8.60
2020,04,15,01,21,8.50
2020,04,15,01,22,8.50
2020,04,15,01,23,8.50
2020,04,15,01,24,8.40
2020,04,15,01,25,8.40
2020,04,15,01,26,8.40
2020,04,15,01,27,8.40
2020,04,15,01,28,8.40
2020,04,15,01,29,8.40
2020,04,15,01,30,8.40
2020,04,15,01,31,8.40
2020,04,15,01,32,8.40
2020,04,15,01,33,8.40
2020,04,15,01,34,8.50
2020,04,15,01,35,8.50
2020,04,15,01,36,8.40
2020,04,15,01,37,8.40
2020,04,15,01,38,8.40
2020,04,15,01,39,8.40
2020,04,15,01,40,8.40
2020,04,15,01,41,8.40
2020,04,15,01,42,8.40
2020,04,15,01,43,8.40
2020,04,15,01,44,8.40
2020,04,15,01,45,8.40
2020,04,15,01,46,8.40
2020,04,15,01,47,8.50
2020,04,15,01,48,8.50
2020,04,15,01,49,8.60
2020,04,15,01,50,8.50
2020,04,15,01,51,8.50
2020,04,15,01,52,8.50
2020,04,15,01,53,8.50
2020,04,15,01,54,8.40
2020,04,15,01,55,8.40
2020,04,15,01,56,8.40
2020,04,15,01,57,8.40
2020,04,15,01,58,8.40
2020,04,15,01,59,8.40
2020,04,15,02,00,8.40
2020,04,15,02,01,8.50
2020,04,15,02,02,8.50
2020,04,15,02,03,8.60
2020,04,15,02,04,8.50
2020,04,15,02,05,8.50
2020,04,15,02,06,8.50
2020,04,15,02,07,8.50
2020,04,15,02,08,8.50
2020,04,15,02,09,8.50
2020,04,15,02,10,8.60
2020,04,15,02,11,8.60
2020,04,15,02,12,8.60
2020,04,15,02,13,8.60
2020,04,15,02,14,8.60
2020,04,15,02,15,8.70
2020,04,15,02,16,8.70
2020,04,15,02,17,8.70
2020,04,15,02,18,8.70
2020,04,15,02,19,8.70
2020,04,15,02,20,8.80
2020,04,15,02,21,8.80
2020,04,15,02,22,8.80
2020,04,15,02,23,8.90
2020,04,15,02,24,9.00
2020,04,15,02,25,9.10
2020,04,15,02,26,9.10
2020,04,15,02,27,9.20
2020,04,15,02,28,9.20
2020,04,15,02,29,9.20
2020,04,15,02,30,9.30
2020,04,15,02,31,9.30
2020,04,15,02,32,9.30
2020,04,15,02,33,9.30
2020,04,15,02,34,9.30
2020,04,15,02,35,9.30
2020,04,15,02,36,9.40
2020,04,15,02,37,9.40
2020,04,15,02,38,9.40
2020,04,15,02,39,9.40
2020,04,15,02,40,9.40
2020,04,15,02,41,9.40
2020,04,15,02,42,9.40
2020,04,15,02,43,9.40
2020,04,15,02,44,9.50
2020,04,15,02,45,9.50
2020,04,15,02,46,9.40
2020,04,15,02,47,9.40
2020,04,15,02,48,9.50
2020,04,15,02,49,9.50
2020,04,15,02,50,9.50
2020,04,15,02,51,9.50
2020,04,15,02,52,9.50
2020,04,15,02,53,9.50
2020,04,15,02,54,9.50
2020,04,15,02,55,9.50
2020,04,15,02,56,9.50
2020,04,15,02,57,9.50
2020,04,15,02,58,9.50
2020,04,15,02,59,9.50
2020,04,15,03,00,9.50
2020,04,15,03,01,9.50
2020,04,15,03,02,9.50
2020,04,15,03,03,9.50
2020,04,15,03,04,9.50
2020,04,15,03,05,9.50
2020,04,15,03,06,9.50
2020,04,15,03,07,9.50
2020,04,15,03,08,9.50
2020,04,15,03,09,9.50
2020,04,15,03,10,9.60
2020,04,15,03,11,9.60
2020,04,15,03,12,9.60
2020,04,15,03,13,9.60
2020,04,15,03,14,9.60
2020,04,15,03,15,9.60
2020,04,15,03,16,9.60
2020,04,15,03,17,9.60
2020,04,15,03,18,9.60
2020,04,15,03,19,9.60
2020,04,15,03,20,9.60
2020,04,15,03,21,9.60
2020,04,15,03,22,9.60
2020,04,15,03,23,9.60
2020,04,15,03,24,9.60
2020,04,15,03,25,9.60
2020,04,15,03,26,9.60
2020,04,15,03,27,9.60
2020,04,15,03,28,9.60
2020,04,15,03,29,9.60
2020,04,15,03,30,9.60
2020,04,15,03,31,9.60
2020,04,15,03,32,9.60
2020,04,15,03,33,9.60
2020,04,15,03,34,9.60
2020,04,15,03,35,9.60
2020,04,15,03,36,9.60
2020,04,15,03,37,9.60
2020,04,15,03,38,9.60
2020,04,15,03,39,9.60
2020,04,15,03,40,9.60
2020,04,15,03,41,9.60
2020,04,15,03,42,9.60
2020,04,15,03,43,9.60
2020,04,15,03,44,9.60
2020,04,15,03,45,9.60
2020,04,15,03,46,9.60
2020,04,15,03,47,9.60
2020,04,15,03,48,9.60
2020,04,15,03,49,9.60
2020,04,15,03,50,9.60
2020,04,15,03,51,9.60
2020,04,15,03,52,9.60
2020,04,15,03,53,9.60
2020,04,15,03,54,9.60
2020,04,15,03,55,9.60
2020,04,15,03,56,9.60
2020,04,15,03,57,9.60
2020,04,15,03,58,9.60
2020,04,15,03,59,9.60
2020,04,15,04,00,9.50
2020,04,15,04,01,9.50
2020,04,15,04,02,9.50
2020,04,15,04,03,9.50
2020,04,15,04,04,9.50
2020,04,15,04,05,9.50
2020,04,15,04,06,9.50
2020,04,15,04,07,9.50
2020,04,15,04,08,9.50
2020,04,15,04,09,9.50
2020,04,15,04,10,9.50
2020,04,15,04,11,9.40
2020,04,15,04,12,9.40
2020,04,15,04,13,9.40
2020,04,15,04,14,9.40
2020,04,15,04,15,9.40
2020,04,15,04,16,9.40
2020,04,15,04,17,9.40
2020,04,15,04,18,9.40
2020,04,15,04,19,9.40
2020,04,15,04,20,9.40
2020,04,15,04,21,9.40
2020,04,15,04,22,9.40
2020,04,15,04,23,9.40
2020,04,15,04,24,9.40
2020,04,15,04,25,9.40
2020,04,15,04,26,9.40
2020,04,15,04,27,9.40
2020,04,15,04,28,9.40
2020,04,15,04,29,9.40
2020,04,15,04,30,9.40
2020,04,15,04,31,9.40
2020,04,15,04,32,9.40
2020,04,15,04,33,9.40
2020,04,15,04,34,9.40
2020,04,15,04,35,9.40
2020,04,15,04,36,9.40
2020,04,15,04,37,9.40
2020,04,15,04,38,9.40
2020,04,15,04,39,9.30
2020,04,15,04,40,9.30
2020,04,15,04,41,9.30
2020,04,15,04,42,9.30
2020,04,15,04,43,9.30
2020,04,15,04,44,9.30
2020,04,15,04,45,9.30
2020,04,15,04,46,9.30
2020,04,15,04,47,9.30
2020,04,15,04,48,9.30
2020,04,15,04,49,9.30
2020,04,15,04,50,9.30
2020,04,15,04,51,9.30
2020,04,15,04,52,9.30
2020,04,15,04,53,9.30
2020,04,15,04,54,9.30
2020,04,15,04,55,9.30
2020,04,15,04,56,9.20
2020,04,15,04,57,9.20
2020,04,15,04,58,9.20
2020,04,15,04,59,9.20
2020,04,15,05,00,9.20
2020,04,15,05,01,9.20
2020,04,15,05,02,9.20
2020,04,15,05,03,9.10
2020,04,15,05,04,9.10
2020,04,15,05,05,9.10
2020,04,15,05,06,9.10
2020,04,15,05,07,9.10
2020,04,15,05,08,9.10
2020,04,15,05,09,9.10
2020,04,15,05,10,9.10
2020,04,15,05,11,9.00
2020,04,15,05,12,9.00
2020,04,15,05,13,9.00
2020,04,15,05,14,9.00
2020,04,15,05,15,8.90
2020,04,15,05,16,8.90
2020,04,15,05,17,8.90
2020,04,15,05,18,8.80
2020,04,15,05,19,8.80
2020,04,15,05,20,8.80
2020,04,15,05,21,8.80
2020,04,15,05,22,8.80
2020,04,15,05,23,8.80
2020,04,15,05,24,8.80
2020,04,15,05,25,8.80
2020,04,15,05,26,8.80
2020,04,15,05,27,8.80
2020,04,15,05,28,8.80
2020,04,15,05,29,8.80
2020,04,15,05,30,8.80
2020,04,15,05,31,8.80
2020,04,15,05,32,8.80
2020,04,15,05,33,8.80
2020,04,15,05,34,8.80
2020,04,15,05,35,8.70
2020,04,15,05,36,8.70
2020,04,15,05,37,8.70
2020,04,15,05,38,8.70
2020,04,15,05,39,8.70
2020,04,15,05,40,8.70
2020,04,15,05,41,8.70
2020,04,15,05,42,8.70
2020,04,15,05,43,8.70
2020,04,15,05,44,8.60
2020,04,15,05,45,8.60
2020,04,15,05,46,8.60
2020,04,15,05,47,8.60
2020,04,15,05,48,8.60
2020,04,15,05,49,8.60
2020,04,15,05,50,8.60
2020,04,15,05,51,8.60
2020,04,15,05,52,8.60
2020,04,15,05,53,8.50
2020,04,15,05,54,8.50
2020,04,15,05,55,8.50
2020,04,15,05,56,8.50
2020,04,15,05,57,8.50
2020,04,15,05,58,8.50
2020,04,15,05,59,8.40
2020,04,15,06,00,8.40
2020,04,15,06,01,8.40
2020,04,15,06,02,8.40
2020,04,15,06,03,8.40
2020,04,15,06,04,8.40
2020,04,15,06,05,8.40
2020,04,15,06,06,8.40
2020,04,15,06,07,8.40
2020,04,15,06,08,8.40
2020,04,15,06,09,8.40
2020,04,15,06,10,8.40
2020,04,15,06,11,8.40
2020,04,15,06,12,8.40
2020,04,15,06,13,8.40
2020,04,15,06,14,8.40
2020,04,15,06,15,8.40
2020,04,15,06,16,8.40
2020,04,15,06,17,8.40
2020,04,15,06,18,8.40
2020,04,15,06,19,8.40
2020,04,15,06,20,8.40
2020,04,15,06,21,8.40
2020,04,15,06,22,8.40
2020,04,15,06,23,8.40
2020,04,15,06,24,8.40
2020,04,15,06,25,8.40
2020,04,15,06,26,8.40
2020,04,15,06,27,8.40
2020,04,15,06,28,8.40
2020,04,15,06,29,8.40
2020,04,15,06,30,8.40
2020,04,15,06,31,8.40
2020,04,15,06,32,8.40
2020,04,15,06,33,8.40
2020,04,15,06,34,8.40
2020,04,15,06,35,8.40
2020,04,15,06,36,8.40
2020,04,15,06,37,8.40
2020,04,15,06,38,8.40
2020,04,15,06,39,8.40
2020,04,15,06,40,8.50
2020,04,15,06,41,8.50
2020,04,15,06,42,8.50
2020,04,15,06,43,8.50
2020,04,15,06,44,8.50
2020,04,15,06,45,8.50
2020,04,15,06,46,8.50
2020,04,15,06,47,8.50
2020,04,15,06,48,8.50
2020,04,15,06,49,8.50
2020,04,15,06,50,8.50
2020,04,15,06,51,8.50
2020,04,15,06,52,8.50
2020,04,15,06,53,8.50
2020,04,15,06,54,8.50
2020,04,15,06,55,8.50
2020,04,15,06,56,8.50
2020,04,15,06,57,8.50
2020,04,15,06,58,8.50
2020,04,15,06,59,8.50
2020,04,15,07,00,8.50
2020,04,15,07,01,8.50
2020,04,15,07,02,8.50
2020,04,15,07,03,8.50
2020,04,15,07,04,8.50
2020,04,15,07,05,8.50
2020,04,15,07,06,8.60
2020,04,15,07,07,8.60
2020,04,15,07,08,8.60
2020,04,15,07,09,8.60
2020,04,15,07,10,8.60
2020,04,15,07,11,8.60
2020,04,15,07,12,8.60
2020,04,15,07,13,8.60
2020,04,15,07,14,8.60
2020,04,15,07,15,8.60
2020,04,15,07,16,8.60
2020,04,15,07,17,8.60
2020,04,15,07,18,8.60
2020,04,15,07,19,8.60
2020,04,15,07,20,8.70
2020,04,15,07,21,8.70
2020,04,15,07,22,8.70
2020,04,15,07,23,8.70
2020,04,15,07,24,8.70
2020,04,15,07,25,8.70
2020,04,15,07,26,8.70
2020,04,15,07,27,8.70
2020,04,15,07,28,8.70
2020,04,15,07,29,8.70
2020,04,15,07,30,8.70
2020,04,15,07,31,8.70
2020,04,15,07,32,8.70
2020,04,15,07,33,8.80
2020,04,15,07,34,8.80
2020,04,15,07,35,8.80
2020,04,15,07,36,8.80
2020,04,15,07,37,8.80
2020,04,15,07,38,8.80
2020,04,15,07,39,8.80
2020,04,15,07,40,8.90
2020,04,15,07,41,8.90
2020,04,15,07,42,8.90
2020,04,15,07,43,8.90
2020,04,15,07,44,8.90
2020,04,15,07,45,8.90
2020,04,15,07,46,8.90
2020,04,15,07,47,9.00
2020,04,15,07,48,9.00
2020,04,15,07,49,9.00
2020,04,15,07,50,9.00
2020,04,15,07,51,9.10
2020,04,15,07,52,9.10
2020,04,15,07,53,9.10
2020,04,15,07,54,9.10
2020,04,15,07,55,9.10
2020,04,15,07,56,9.10
2020,04,15,07,57,9.10
2020,04,15,07,58,9.20
2020,04,15,07,59,9.20
2020,04,15,08,00,9.20
2020,04,15,08,01,9.20
2020,04,15,08,02,9.20
2020,04,15,08,03,9.20
2020,04,15,08,04,9.30
2020,04,15,08,05,9.30
2020,04,15,08,06,9.30
2020,04,15,08,07,9.30
2020,04,15,08,08,9.30
2020,04,15,08,09,9.30
2020,04,15,08,10,9.30
2020,04,15,08,11,9.30
2020,04,15,08,12,9.30
2020,04,15,08,13,9.40
2020,04,15,08,14,9.40
2020,04,15,08,15,9.40
2020,04,15,08,16,9.50
2020,04,15,08,17,9.50
2020,04,15,08,18,9.50
2020,04,15,08,19,9.50
2020,04,15,08,20,9.50
2020,04,15,08,21,9.50
2020,04,15,08,22,9.50
2020,04,15,08,23,9.40
2020,04,15,08,24,9.40
2020,04,15,08,25,9.50
2020,04,15,08,26,9.50
2020,04,15,08,27,9.50
2020,04,15,08,28,9.50
2020,04,15,08,29,9.50
2020,04,15,08,30,9.50
2020,04,15,08,31,9.50
2020,04,15,08,32,9.60
2020,04,15,08,33,9.60
2020,04,15,08,34,9.60
2020,04,15,08,35,9.60
2020,04,15,08,36,9.70
2020,04,15,08,37,9.70
2020,04,15,08,38,9.70
2020,04,15,08,39,9.70
2020,04,15,08,40,9.70
2020,04,15,08,41,9.70
2020,04,15,08,42,9.70
2020,04,15,08,43,9.70
2020,04,15,08,44,9.60
2020,04,15,08,45,9.60
2020,04,15,08,46,9.60
2020,04,15,08,47,9.60
2020,04,15,08,48,9.60
2020,04,15,08,49,9.70
2020,04,15,08,50,9.70
2020,04,15,08,51,9.60
2020,04,15,08,52,9.60
2020,04,15,08,53,9.60
2020,04,15,08,54,9.60
2020,04,15,08,55,9.60
2020,04,15,08,56,9.60
2020,04,15,08,57,9.60
2020,04,15,08,58,9.60
2020,04,15,08,59,9.70
2020,04,15,09,00,9.70
2020,04,15,09,01,9.70
2020,04,15,09,02,9.70
2020,04,15,09,03,9.70
2020,04,15,09,04,9.70
2020,04,15,09,05,9.70
2020,04,15,09,06,9.70
2020,04,15,09,07,9.70
2020,04,15,09,08,9.70
2020,04,15,09,09,9.70
2020,04,15,09,10,9.70
2020,04,15,09,11,9.70
2020,04,15,09,12,9.70
2020,04,15,09,13,9.70
2020,04,15,09,14,9.70
2020,04,15,09,15,9.70
2020,04,15,09,16,9.70
2020,04,15,09,17,9.70
2020,04,15,09,18,9.70
2020,04,15,09,19,9.70
2020,04,15,09,20,9.70
2020,04,15,09,21,9.80
2020,04,15,09,22,9.80
2020,04,15,09,23,9.80
2020,04,15,09,24,9.80
2020,04,15,09,25,9.80
2020,04,15,09,26,9.80
2020,04,15,09,27,9.80
2020,04,15,09,28,9.80
2020,04,15,09,29,9.80
2020,04,15,09,30,9.80
2020,04,15,09,31,9.80
2020,04,15,09,32,9.80
2020,04,15,09,33,9.80
2020,04,15,09,34,9.80
2020,04,15,09,35,9.90
2020,04,15,09,36,9.90
2020,04,15,09,37,9.90
2020,04,15,09,38,9.90
2020,04,15,09,39,9.90
2020,04,15,09,40,9.90
2020,04,15,09,41,9.90
2020,04,15,09,42,9.90
2020,04,15,09,43,10.00
2020,04,15,09,44,10.00
2020,04,15,09,45,10.00
2020,04,15,09,46,10.00
2020,04,15,09,47,9.90
2020,04,15,09,48,9.90
2020,04,15,09,49,10.00
2020,04,15,09,50,10.00
2020,04,15,09,51,10.00
2020,04,15,09,52,10.00
2020,04,15,09,53,10.00
2020,04,15,09,54,10.00
2020,04,15,09,55,10.00
2020,04,15,09,56,10.00
2020,04,15,09,57,10.10
2020,04,15,09,58,10.10
2020,04,15,09,59,10.10
2020,04,15,10,00,10.10
2020,04,15,10,01,10.10
2020,04,15,10,02,10.10
2020,04,15,10,03,10.10
2020,04,15,10,04,10.20
2020,04,15,10,05,10.20
2020,04,15,10,06,10.30
2020,04,15,10,07,10.30
2020,04,15,10,08,10.40
2020,04,15,10,09,10.60
2020,04,15,10,10,10.70
2020,04,15,10,11,10.70
2020,04,15,10,12,10.70
2020,04,15,10,13,10.70
2020,04,15,10,14,10.70
2020,04,15,10,15,10.70
2020,04,15,10,16,10.80
2020,04,15,10,17,10.80
2020,04,15,10,18,10.80
2020,04,15,10,19,10.80
2020,04,15,10,20,10.90
2020,04,15,10,21,10.80
2020,04,15,10,22,10.80
2020,04,15,10,23,10.70
2020,04,15,10,24,10.70
2020,04,15,10,25,10.70
2020,04,15,10,26,10.70
2020,04,15,10,27,10.80
2020,04,15,10,28,10.80
2020,04,15,10,29,10.80
2020,04,15,10,30,10.80
2020,04,15,10,31,10.80
2020,04,15,10,32,10.80
2020,04,15,10,33,10.80
2020,04,15,10,34,10.80
2020,04,15,10,35,10.80
2020,04,15,10,36,10.80
2020,04,15,10,37,10.90
2020,04,15,10,38,10.90
2020,04,15,10,39,10.90
2020,04,15,10,40,11.00
2020,04,15,10,41,11.10
2020,04,15,10,42,11.10
2020,04,15,10,43,11.10
2020,04,15,10,44,11.20
2020,04,15,10,45,11.20
2020,04,15,10,46,11.30
2020,04,15,10,47,11.40
2020,04,15,10,48,11.40
2020,04,15,10,49,11.50
2020,04,15,10,50,11.50
2020,04,15,10,51,11.50
2020,04,15,10,52,11.50
2020,04,15,10,53,11.50
2020,04,15,10,54,11.50
2020,04,15,10,55,11.50
2020,04,15,10,56,11.50
2020,04,15,10,57,11.60
2020,04,15,10,58,11.60
2020,04,15,10,59,11.70
2020,04,15,11,00,11.70
2020,04,15,11,01,11.80
2020,04,15,11,02,11.80
2020,04,15,11,03,11.80
2020,04,15,11,04,11.90
2020,04,15,11,05,12.00
2020,04,15,11,06,12.10
2020,04,15,11,07,12.10
2020,04,15,11,08,12.10
2020,04,15,11,09,12.10
2020,04,15,11,10,12.00
2020,04,15,11,11,12.00
2020,04,15,11,12,12.00
2020,04,15,11,13,12.00
2020,04,15,11,14,12.10
2020,04,15,11,15,12.10
2020,04,15,11,16,12.10
2020,04,15,11,17,12.10
2020,04,15,11,18,12.10
2020,04,15,11,19,12.10
2020,04,15,11,20,12.20
2020,04,15,11,21,12.20
2020,04,15,11,22,12.30
2020,04,15,11,23,12.40
2020,04,15,11,24,12.50
2020,04,15,11,25,12.50
2020,04,15,11,26,12.70
2020,04,15,11,27,12.80
2020,04,15,11,28,12.90
2020,04,15,11,29,13.00
2020,04,15,11,30,13.10
2020,04,15,11,31,13.20
2020,04,15,11,32,13.20
2020,04,15,11,33,13.30
2020,04,15,11,34,13.40
2020,04,15,11,35,13.40
2020,04,15,11,36,13.50
2020,04,15,11,37,13.60
2020,04,15,11,38,13.60
2020,04,15,11,39,13.60
2020,04,15,11,40,13.70
2020,04,15,11,41,13.70
2020,04,15,11,42,13.70
2020,04,15,11,43,13.60
2020,04,15,11,44,13.60
2020,04,15,11,45,13.60
2020,04,15,11,46,13.60
2020,04,15,11,47,13.60
2020,04,15,11,48,13.70
2020,04,15,11,49,13.70
2020,04,15,11,50,13.70
2020,04,15,11,51,13.70
2020,04,15,11,52,13.60
2020,04,15,11,53,13.60
2020,04,15,11,54,13.50
2020,04,15,11,55,13.40
2020,04,15,11,56,13.40
2020,04,15,11,57,13.50
2020,04,15,11,58,13.60
2020,04,15,11,59,13.60
2020,04,15,12,00,13.70
2020,04,15,12,01,13.80
2020,04,15,12,02,13.80
2020,04,15,12,03,13.80
2020,04,15,12,04,13.90
2020,04,15,12,05,13.90
2020,04,15,12,06,13.90
2020,04,15,12,07,13.90
2020,04,15,12,08,13.90
2020,04,15,12,09,13.80
2020,04,15,12,10,13.80
2020,04,15,12,11,13.80
2020,04,15,12,12,13.80
2020,04,15,12,13,13.90
2020,04,15,12,14,13.90
2020,04,15,12,15,13.90
2020,04,15,12,16,13.80
2020,04,15,12,17,13.80
2020,04,15,12,18,13.80
2020,04,15,12,19,13.80
2020,04,15,12,20,13.80
2020,04,15,12,21,13.90
2020,04,15,12,22,14.00
2020,04,15,12,23,14.10
2020,04,15,12,24,14.20
2020,04,15,12,25,14.30
2020,04,15,12,26,14.40
2020,04,15,12,27,14.40
2020,04,15,12,28,14.40
2020,04,15,12,29,14.40
2020,04,15,12,30,14.40
2020,04,15,12,31,14.40
2020,04,15,12,32,14.50
2020,04,15,12,33,14.50
2020,04,15,12,34,14.50
2020,04,15,12,35,14.40
2020,04,15,12,36,14.40
2020,04,15,12,37,14.40
2020,04,15,12,38,14.40
2020,04,15,12,39,14.40
2020,04,15,12,40,14.40
2020,04,15,12,41,14.40
2020,04,15,12,42,14.50
2020,04,15,12,43,14.60
2020,04,15,12,44,14.50
2020,04,15,12,45,14.40
2020,04,15,12,46,14.40
2020,04,15,12,47,14.40
2020,04,15,12,48,14.40
2020,04,15,12,49,14.50
2020,04,15,12,50,14.50
2020,04,15,12,51,14.60
2020,04,15,12,52,14.60
2020,04,15,12,53,14.60
2020,04,15,12,54,14.40
2020,04,15,12,55,14.30
2020,04,15,12,56,14.30
2020,04,15,12,57,14.30
2020,04,15,12,58,14.40
2020,04,15,12,59,14.50
2020,04,15,13,00,14.60
2020,04,15,13,01,14.60
2020,04,15,13,02,14.60
2020,04,15,13,03,14.50
2020,04,15,13,04,14.30
2020,04,15,13,05,14.10
2020,04,15,13,06,14.00
2020,04,15,13,07,14.00
2020,04,15,13,08,14.10
2020,04,15,13,09,14.10
2020,04,15,13,10,14.20
2020,04,15,13,11,14.30
2020,04,15,13,12,14.30
2020,04,15,13,13,14.40
2020,04,15,13,14,14.40
2020,04,15,13,15,14.40
2020,04,15,13,16,14.40
2020,04,15,13,17,14.40
2020,04,15,13,18,14.50
2020,04,15,13,19,14.50
2020,04,15,13,20,14.50
2020,04,15,13,21,14.40
2020,04,15,13,22,14.40
2020,04,15,13,23,14.30
2020,04,15,13,24,14.30
2020,04,15,13,25,14.30
2020,04,15,13,26,14.30
2020,04,15,13,27,14.40
2020,04,15,13,28,14.50
2020,04,15,13,29,14.60
2020,04,15,13,30,14.70
2020,04,15,13,31,14.80
2020,04,15,13,32,14.80
2020,04,15,13,33,14.80
2020,04,15,13,34,14.80
2020,04,15,13,35,14.70
2020,04,15,13,36,14.60
2020,04,15,13,37,14.50
2020,04,15,13,38,14.30
2020,04,15,13,39,14.10
2020,04,15,13,40,13.90
2020,04,15,13,41,13.80
2020,04,15,13,42,13.80
2020,04,15,13,43,13.80
2020,04,15,13,44,13.80
2020,04,15,13,45,13.70
2020,04,15,13,46,13.70
2020,04,15,13,47,13.70
2020,04,15,13,48,13.70
2020,04,15,13,49,13.70
2020,04,15,13,50,13.70
2020,04,15,13,51,13.70
2020,04,15,13,52,13.70
2020,04,15,13,53,13.70
2020,04,15,13,54,13.80
2020,04,15,13,55,13.80
2020,04,15,13,56,13.90
2020,04,15,13,57,13.90
2020,04,15,13,58,13.80
2020,04,15,13,59,13.90
2020,04,15,14,00,13.90
2020,04,15,14,01,14.00
2020,04,15,14,02,14.00
2020,04,15,14,03,14.00
2020,04,15,14,04,14.00
2020,04,15,14,05,14.10
2020,04,15,14,06,14.10
2020,04,15,14,07,14.20
2020,04,15,14,08,14.20
2020,04,15,14,09,14.20
2020,04,15,14,10,14.30
2020,04,15,14,11,14.50
2020,04,15,14,12,14.60
2020,04,15,14,13,14.70
2020,04,15,14,14,14.80
2020,04,15,14,15,14.90
2020,04,15,14,16,14.90
2020,04,15,14,17,15.00
2020,04,15,14,18,15.10
2020,04,15,14,19,15.10
2020,04,15,14,20,15.20
2020,04,15,14,21,15.20
2020,04,15,14,22,15.20
2020,04,15,14,23,15.20
2020,04,15,14,24,15.10
2020,04,15,14,25,15.10
2020,04,15,14,26,15.10
2020,04,15,14,27,15.20
2020,04,15,14,28,15.10
2020,04,15,14,29,15.00
2020,04,15,14,30,15.00
2020,04,15,14,31,15.00
2020,04,15,14,32,15.10
2020,04,15,14,33,15.10
2020,04,15,14,34,15.20
2020,04,15,14,35,15.20
2020,04,15,14,36,15.20
2020,04,15,14,37,15.20
2020,04,15,14,38,15.20
2020,04,15,14,39,15.20
2020,04,15,14,40,15.20
2020,04,15,14,41,15.20
2020,04,15,14,42,15.20
2020,04,15,14,43,15.20
2020,04,15,14,44,15.20
2020,04,15,14,45,15.20
2020,04,15,14,46,15.20
2020,04,15,14,47,15.20
2020,04,15,14,48,15.20
2020,04,15,14,49,15.30
2020,04,15,14,50,15.40
2020,04,15,14,51,15.40
2020,04,15,14,52,15.50
2020,04,15,14,53,15.50
2020,04,15,14,54,15.50
2020,04,15,14,55,15.40
2020,04,15,14,56,15.40
2020,04,15,14,57,15.30
2020,04,15,14,58,15.30
2020,04,15,14,59,15.20
2020,04,15,15,00,15.10
2020,04,15,15,01,15.10
2020,04,15,15,02,15.10
2020,04,15,15,03,15.10
2020,04,15,15,04,15.20
2020,04,15,15,05,15.30
2020,04,15,15,06,15.50
2020,04,15,15,07,15.60
2020,04,15,15,08,15.70
2020,04,15,15,09,15.80
2020,04,15,15,10,15.90
2020,04,15,15,11,16.00
2020,04,15,15,12,16.00
2020,04,15,15,13,16.00
2020,04,15,15,14,16.00
2020,04,15,15,15,16.00
2020,04,15,15,16,15.90
2020,04,15,15,17,15.90
2020,04,15,15,18,15.90
2020,04,15,15,19,15.90
2020,04,15,15,20,15.90
2020,04,15,15,21,15.90
2020,04,15,15,22,15.80
2020,04,15,15,23,15.80
2020,04,15,15,24,15.80
2020,04,15,15,25,15.80
2020,04,15,15,26,15.70
2020,04,15,15,27,15.70
2020,04,15,15,28,15.60
2020,04,15,15,29,15.50
2020,04,15,15,30,15.50
2020,04,15,15,31,15.50
2020,04,15,15,32,15.60
2020,04,15,15,33,15.60
2020,04,15,15,34,15.70
2020,04,15,15,35,15.70
2020,04,15,15,36,15.80
2020,04,15,15,37,15.80
2020,04,15,15,38,15.90
2020,04,15,15,39,15.90
2020,04,15,15,40,15.90
2020,04,15,15,41,15.90
2020,04,15,15,42,16.00
2020,04,15,15,43,16.00
2020,04,15,15,44,16.00
2020,04,15,15,45,16.00
2020,04,15,15,46,16.00
2020,04,15,15,47,16.00
2020,04,15,15,48,16.10
2020,04,15,15,49,16.10
2020,04,15,15,50,16.20
2020,04,15,15,51,16.20
2020,04,15,15,52,16.30
2020,04,15,15,53,16.30
2020,04,15,15,54,16.40
2020,04,15,15,55,16.50
2020,04,15,15,56,16.60
2020,04,15,15,57,16.70
2020,04,15,15,58,16.70
2020,04,15,15,59,16.70
2020,04,15,16,00,16.70
2020,04,15,16,01,16.70
2020,04,15,16,02,16.70
2020,04,15,16,03,16.80
2020,04,15,16,04,16.80
2020,04,15,16,05,16.90
2020,04,15,16,06,16.90
2020,04,15,16,07,16.90
2020,04,15,16,08,16.90
2020,04,15,16,09,16.80
2020,04,15,16,10,16.80
2020,04,15,16,11,16.70
2020,04,15,16,12,16.50
2020,04,15,16,13,16.40
2020,04,15,16,14,16.30
2020,04,15,16,15,16.20
2020,04,15,16,16,16.30
2020,04,15,16,17,16.30
2020,04,15,16,18,16.40
2020,04,15,16,19,16.50
2020,04,15,16,20,16.60
2020,04,15,16,21,16.70
2020,04,15,16,22,16.70
2020,04,15,16,23,16.50
2020,04,15,16,24,16.30
2020,04,15,16,25,16.20
2020,04,15,16,26,16.00
2020,04,15,16,27,15.90
2020,04,15,16,28,15.80
2020,04,15,16,29,15.60
2020,04,15,16,30,15.60
2020,04,15,16,31,15.50
2020,04,15,16,32,15.50
2020,04,15,16,33,15.60
2020,04,15,16,34,15.60
2020,04,15,16,35,15.70
2020,04,15,16,36,15.70
2020,04,15,16,37,15.80
2020,04,15,16,38,15.90
2020,04,15,16,39,16.00
2020,04,15,16,40,16.10
2020,04,15,16,41,16.20
2020,04,15,16,42,16.20
2020,04,15,16,43,16.10
2020,04,15,16,44,16.10
2020,04,15,16,45,16.00
2020,04,15,16,46,16.00
2020,04,15,16,47,15.90
2020,04,15,16,48,16.00
2020,04,15,16,49,16.00
2020,04,15,16,50,16.10
2020,04,15,16,51,16.20
2020,04,15,16,52,16.40
2020,04,15,16,53,16.50
2020,04,15,16,54,16.70
2020,04,15,16,55,16.90
2020,04,15,16,56,17.00
2020,04,15,16,57,17.10
2020,04,15,16,58,17.20
2020,04,15,16,59,17.20
2020,04,15,17,00,17.20
2020,04,15,17,01,17.20
2020,04,15,17,02,17.10
2020,04,15,17,03,17.10
2020,04,15,17,04,17.00
2020,04,15,17,05,17.00
2020,04,15,17,06,16.90
2020,04,15,17,07,16.80
2020,04,15,17,08,16.80
2020,04,15,17,09,16.80
2020,04,15,17,10,16.70
2020,04,15,17,11,16.70
2020,04,15,17,12,16.60
2020,04,15,17,13,16.60
2020,04,15,17,14,16.60
2020,04,15,17,15,16.60
2020,04,15,17,16,16.60
2020,04,15,17,17,16.60
2020,04,15,17,18,16.60
2020,04,15,17,19,16.70
2020,04,15,17,20,16.70
2020,04,15,17,21,16.80
2020,04,15,17,22,16.80
2020,04,15,17,23,16.90
2020,04,15,17,24,17.00
2020,04,15,17,25,17.10
2020,04,15,17,26,17.30
2020,04,15,17,27,17.40
2020,04,15,17,28,17.50
2020,04,15,17,29,17.60
2020,04,15,17,30,17.80
2020,04,15,17,31,17.90
2020,04,15,17,32,18.00
2020,04,15,17,33,18.10
2020,04,15,17,34,18.10
2020,04,15,17,35,18.20
2020,04,15,17,36,18.30
2020,04,15,17,37,18.40
2020,04,15,17,38,18.50
2020,04,15,17,39,18.60
2020,04,15,17,40,18.60
2020,04,15,17,41,18.70
2020,04,15,17,42,18.80
2020,04,15,17,43,18.80
2020,04,15,17,44,18.80